Time,TemperatureF,DewpointF,PressureIn,WindDirection,WindDirectionDegrees,WindSpeedMPH,WindSpeedGustMPH,Humidity,HourlyPrecipIn,Conditions,Clouds,dailyrainin,SolarRadiationWatts/m^2,SoftwareType,DateUTC
2013-01-23 00:01:00,-5.0,-16.0,-100.00,West,279,1.0,5.0,58,0.00,,,0.00,0.000000,,2013-01-23 05:01:00,
2013-01-23 00:33:00,-5.0,-16.0,-100.00,West,279,1.0,5.0,58,0.00,,,0.00,0.000000,,2013-01-23 05:33:00,
2013-01-23 00:43:00,-5.0,-16.0,-100.00,West,279,1.0,5.0,58,0.00,,,0.00,0.000000,,2013-01-23 05:43:00,
2013-01-23 00:53:00,-5.0,-16.0,-100.00,West,279,1.0,5.0,58,0.00,,,0.00,0.000000,,2013-01-23 05:53:00,
2013-01-23 01:01:00,-6.0,-17.0,-100.00,WSW,252,0.0,6.0,59,0.00,,,0.00,0.000000,,2013-01-23 06:01:00,
2013-01-23 01:23:00,-6.0,-17.0,-100.00,WSW,252,0.0,6.0,59,0.00,,,0.00,0.000000,,2013-01-23 06:23:00,
2013-01-23 01:33:00,-6.0,-17.0,-100.00,WSW,252,0.0,6.0,59,0.00,,,0.00,0.000000,,2013-01-23 06:33:00,
2013-01-23 01:43:00,-6.0,-17.0,-100.00,WSW,252,0.0,6.0,59,0.00,,,0.00,0.000000,,2013-01-23 06:43:00,
2013-01-23 01:53:00,-6.0,-17.0,-100.00,WSW,252,0.0,6.0,59,0.00,,,0.00,0.000000,,2013-01-23 06:53:00,
2013-01-23 02:01:00,-8.0,-18.0,-100.00,WNW,282,0.0,6.0,59,0.00,,,0.00,0.000000,,2013-01-23 07:01:00,
2013-01-23 02:33:00,-8.0,-18.0,-100.00,WNW,282,0.0,6.0,59,0.00,,,0.00,0.000000,,2013-01-23 07:33:00,
2013-01-23 02:43:00,-8.0,-18.0,-100.00,WNW,282,0.0,6.0,59,0.00,,,0.00,0.000000,,2013-01-23 07:43:00,
2013-01-23 02:53:00,-8.0,-18.0,-100.00,WNW,282,0.0,6.0,59,0.00,,,0.00,0.000000,,2013-01-23 07:53:00,
2013-01-23 03:01:00,-10.0,-20.0,-100.00,NW,306,0.0,4.0,59,0.00,,,0.00,0.000000,,2013-01-23 08:01:00,
2013-01-23 03:33:00,-10.0,-20.0,-100.00,NW,306,0.0,4.0,59,0.00,,,0.00,0.000000,,2013-01-23 08:33:00,
2013-01-23 03:43:00,-10.0,-20.0,-100.00,NW,306,0.0,4.0,59,0.00,,,0.00,0.000000,,2013-01-23 08:43:00,
2013-01-23 03:53:00,-10.0,-20.0,-100.00,NW,306,0.0,4.0,59,0.00,,,0.00,0.000000,,2013-01-23 08:53:00,
2013-01-23 04:01:00,-11.0,-20.0,-100.00,West,264,0.0,4.0,62,0.00,,,0.00,0.000000,,2013-01-23 09:01:00,
2013-01-23 04:23:00,-11.0,-20.0,-100.00,West,264,0.0,4.0,62,0.00,,,0.00,0.000000,,2013-01-23 09:23:00,
2013-01-23 04:33:00,-11.0,-20.0,-100.00,West,264,0.0,4.0,62,0.00,,,0.00,0.000000,,2013-01-23 09:33:00,
2013-01-23 04:43:00,-11.0,-20.0,-100.00,West,264,0.0,4.0,62,0.00,,,0.00,0.000000,,2013-01-23 09:43:00,
2013-01-23 04:53:00,-11.0,-20.0,-100.00,West,264,0.0,4.0,62,0.00,,,0.00,0.000000,,2013-01-23 09:53:00,
2013-01-23 05:01:00,-13.0,-23.0,-100.00,West,275,1.0,6.0,60,0.00,,,0.00,0.000000,,2013-01-23 10:01:00,
2013-01-23 05:23:00,-13.0,-23.0,-100.00,West,275,1.0,6.0,60,0.00,,,0.00,0.000000,,2013-01-23 10:23:00,
2013-01-23 05:33:00,-13.0,-23.0,-100.00,West,275,1.0,6.0,60,0.00,,,0.00,0.000000,,2013-01-23 10:33:00,
2013-01-23 05:43:00,-13.0,-23.0,-100.00,West,275,1.0,6.0,60,0.00,,,0.00,0.000000,,2013-01-23 10:43:00,
2013-01-23 05:53:00,-13.0,-23.0,-100.00,West,275,1.0,6.0,60,0.00,,,0.00,0.000000,,2013-01-23 10:53:00,
2013-01-23 06:01:00,-15.0,-24.0,-100.00,NNE,28,0.0,4.0,64,0.00,,,0.00,0.000000,,2013-01-23 11:01:00,
2013-01-23 06:23:00,-15.0,-24.0,-100.00,NNE,28,0.0,4.0,64,0.00,,,0.00,0.000000,,2013-01-23 11:23:00,
2013-01-23 06:34:00,-15.0,-24.0,-100.00,NNE,28,0.0,4.0,64,0.00,,,0.00,0.000000,,2013-01-23 11:34:00,
2013-01-23 06:43:00,-15.0,-24.0,-100.00,NNE,28,0.0,4.0,64,0.00,,,0.00,0.000000,,2013-01-23 11:43:00,
2013-01-23 06:53:00,-15.0,-24.0,-100.00,NNE,28,0.0,4.0,64,0.00,,,0.00,0.000000,,2013-01-23 11:53:00,
2013-01-23 07:01:00,-16.0,-25.0,-100.00,NW,320,0.0,3.0,63,0.00,,,0.00,0.000000,,2013-01-23 12:01:00,
2013-01-23 07:23:00,-16.0,-25.0,-100.00,NW,320,0.0,3.0,63,0.00,,,0.00,0.000000,,2013-01-23 12:23:00,
2013-01-23 07:33:00,-16.0,-25.0,-100.00,NW,320,0.0,3.0,63,0.00,,,0.00,0.000000,,2013-01-23 12:33:00,
2013-01-23 07:43:00,-16.0,-25.0,-100.00,NW,320,0.0,3.0,63,0.00,,,0.00,0.000000,,2013-01-23 12:43:00,
2013-01-23 07:53:00,-16.0,-25.0,-100.00,NW,320,0.0,3.0,63,0.00,,,0.00,0.000000,,2013-01-23 12:53:00,
2013-01-23 08:01:00,-16.0,-24.0,-100.00,WNW,300,0.0,0.0,66,0.00,,,0.00,8.000000,,2013-01-23 13:01:00,
2013-01-23 08:23:00,-16.0,-24.0,-100.00,WNW,300,0.0,0.0,66,0.00,,,0.00,8.000000,,2013-01-23 13:23:00,
2013-01-23 08:33:00,-16.0,-24.0,-100.00,WNW,300,0.0,0.0,66,0.00,,,0.00,8.000000,,2013-01-23 13:33:00,
2013-01-23 08:43:00,-16.0,-24.0,-100.00,WNW,300,0.0,0.0,66,0.00,,,0.00,8.000000,,2013-01-23 13:43:00,
2013-01-23 08:53:00,-16.0,-24.0,-100.00,WNW,300,0.0,0.0,66,0.00,,,0.00,8.000000,,2013-01-23 13:53:00,
2013-01-23 09:01:00,-11.0,-22.0,-100.00,West,267,0.0,4.0,57,0.00,,,0.00,58.000000,,2013-01-23 14:01:00,
2013-01-23 09:24:00,-11.0,-22.0,-100.00,West,267,0.0,4.0,57,0.00,,,0.00,58.000000,,2013-01-23 14:24:00,
2013-01-23 09:33:00,-11.0,-22.0,-100.00,West,267,0.0,4.0,57,0.00,,,0.00,58.000000,,2013-01-23 14:33:00,
2013-01-23 09:43:00,-11.0,-22.0,-100.00,West,267,0.0,4.0,57,0.00,,,0.00,58.000000,,2013-01-23 14:43:00,
2013-01-23 09:53:00,-11.0,-22.0,-100.00,West,267,0.0,4.0,57,0.00,,,0.00,58.000000,,2013-01-23 14:53:00,
2013-01-23 10:01:00,-7.0,-24.0,-100.00,WSW,238,2.0,7.0,43,0.00,,,0.00,234.000000,,2013-01-23 15:01:00,
2013-01-23 10:23:00,-7.0,-24.0,-100.00,WSW,238,2.0,7.0,43,0.00,,,0.00,234.000000,,2013-01-23 15:23:00,
2013-01-23 10:33:00,-7.0,-24.0,-100.00,WSW,238,2.0,7.0,43,0.00,,,0.00,234.000000,,2013-01-23 15:33:00,
2013-01-23 10:43:00,-7.0,-24.0,-100.00,WSW,238,2.0,7.0,43,0.00,,,0.00,234.000000,,2013-01-23 15:43:00,
2013-01-23 10:53:00,-7.0,-24.0,-100.00,WSW,238,2.0,7.0,43,0.00,,,0.00,234.000000,,2013-01-23 15:53:00,
2013-01-23 11:01:00,-3.0,-23.0,-100.00,West,262,2.0,7.0,37,0.00,,,0.00,389.000000,,2013-01-23 16:01:00,
2013-01-23 11:23:00,-3.0,-23.0,-100.00,West,262,2.0,7.0,37,0.00,,,0.00,389.000000,,2013-01-23 16:23:00,
2013-01-23 11:33:00,-3.0,-23.0,-100.00,West,262,2.0,7.0,37,0.00,,,0.00,389.000000,,2013-01-23 16:33:00,
2013-01-23 11:43:00,-3.0,-23.0,-100.00,West,262,2.0,7.0,37,0.00,,,0.00,389.000000,,2013-01-23 16:43:00,
2013-01-23 11:53:00,-3.0,-23.0,-100.00,West,262,2.0,7.0,37,0.00,,,0.00,389.000000,,2013-01-23 16:53:00,
2013-01-23 12:01:00,-2.0,-22.0,-100.00,WSW,238,3.0,8.0,36,0.00,,,0.00,473.000000,,2013-01-23 17:01:00,
2013-01-23 12:23:00,-2.0,-22.0,-100.00,WSW,238,3.0,8.0,36,0.00,,,0.00,473.000000,,2013-01-23 17:23:00,
2013-01-23 12:34:00,-2.0,-22.0,-100.00,WSW,238,3.0,8.0,36,0.00,,,0.00,473.000000,,2013-01-23 17:34:00,
2013-01-23 12:43:00,-2.0,-22.0,-100.00,WSW,238,3.0,8.0,36,0.00,,,0.00,473.000000,,2013-01-23 17:43:00,
2013-01-23 12:53:00,-2.0,-22.0,-100.00,WSW,238,3.0,8.0,36,0.00,,,0.00,473.000000,,2013-01-23 17:53:00,
2013-01-23 13:01:00,0.0,-24.0,-100.00,WSW,238,3.0,12.0,31,0.00,,,0.00,477.000000,,2013-01-23 18:01:00,
2013-01-23 13:33:00,0.0,-24.0,-100.00,WSW,238,3.0,12.0,31,0.00,,,0.00,477.000000,,2013-01-23 18:33:00,
2013-01-23 13:44:00,0.0,-24.0,-100.00,WSW,238,3.0,12.0,31,0.00,,,0.00,477.000000,,2013-01-23 18:44:00,
2013-01-23 13:53:00,0.0,-24.0,-100.00,WSW,238,3.0,12.0,31,0.00,,,0.00,477.000000,,2013-01-23 18:53:00,
2013-01-23 14:01:00,1.0,-22.0,-100.00,WSW,238,3.0,7.0,31,0.00,,,0.00,418.000000,,2013-01-23 19:01:00,
2013-01-23 14:33:00,1.0,-22.0,-100.00,WSW,238,3.0,7.0,31,0.00,,,0.00,418.000000,,2013-01-23 19:33:00,
2013-01-23 14:43:00,1.0,-22.0,-100.00,WSW,238,3.0,7.0,31,0.00,,,0.00,418.000000,,2013-01-23 19:43:00,
2013-01-23 14:53:00,1.0,-22.0,-100.00,WSW,238,3.0,7.0,31,0.00,,,0.00,418.000000,,2013-01-23 19:53:00,
2013-01-23 15:01:00,0.0,-22.0,-100.00,WSW,248,2.0,8.0,34,0.00,,,0.00,299.000000,,2013-01-23 20:01:00,
2013-01-23 15:33:00,0.0,-22.0,-100.00,WSW,248,2.0,8.0,34,0.00,,,0.00,299.000000,,2013-01-23 20:33:00,
2013-01-23 15:43:00,0.0,-22.0,-100.00,WSW,248,2.0,8.0,34,0.00,,,0.00,299.000000,,2013-01-23 20:43:00,
2013-01-23 15:54:00,0.0,-22.0,-100.00,WSW,248,2.0,8.0,34,0.00,,,0.00,299.000000,,2013-01-23 20:54:00,
2013-01-23 16:01:00,-3.0,-21.0,-100.00,WNW,300,0.0,7.0,40,0.00,,,0.00,44.000000,,2013-01-23 21:01:00,
2013-01-23 16:23:00,-3.0,-21.0,-100.00,WNW,300,0.0,7.0,40,0.00,,,0.00,44.000000,,2013-01-23 21:23:00,
2013-01-23 16:34:00,-3.0,-21.0,-100.00,WNW,300,0.0,7.0,40,0.00,,,0.00,44.000000,,2013-01-23 21:34:00,
2013-01-23 16:43:00,-3.0,-21.0,-100.00,WNW,300,0.0,7.0,40,0.00,,,0.00,44.000000,,2013-01-23 21:43:00,
2013-01-23 16:53:00,-3.0,-21.0,-100.00,WNW,300,0.0,7.0,40,0.00,,,0.00,44.000000,,2013-01-23 21:53:00,
2013-01-23 17:01:00,-6.0,-21.0,-100.00,NW,315,0.0,3.0,47,0.00,,,0.00,13.000000,,2013-01-23 22:01:00,
2013-01-23 17:23:00,-6.0,-21.0,-100.00,NW,315,0.0,3.0,47,0.00,,,0.00,13.000000,,2013-01-23 22:23:00,
2013-01-23 17:33:00,-6.0,-21.0,-100.00,NW,315,0.0,3.0,47,0.00,,,0.00,13.000000,,2013-01-23 22:33:00,
2013-01-23 17:43:00,-6.0,-21.0,-100.00,NW,315,0.0,3.0,47,0.00,,,0.00,13.000000,,2013-01-23 22:43:00,
2013-01-23 17:53:00,-6.0,-21.0,-100.00,NW,315,0.0,3.0,47,0.00,,,0.00,13.000000,,2013-01-23 22:53:00,
2013-01-23 18:01:00,-9.0,-20.0,-100.00,NNW,342,0.0,0.0,58,0.00,,,0.00,0.000000,,2013-01-23 23:01:00,
2013-01-23 18:33:00,-9.0,-20.0,-100.00,NNW,342,0.0,0.0,58,0.00,,,0.00,0.000000,,2013-01-23 23:33:00,
2013-01-23 18:43:00,-9.0,-20.0,-100.00,NNW,342,0.0,0.0,58,0.00,,,0.00,0.000000,,2013-01-23 23:43:00,
2013-01-23 18:53:00,-9.0,-20.0,-100.00,NNW,342,0.0,0.0,58,0.00,,,0.00,0.000000,,2013-01-23 23:53:00,
2013-01-23 19:01:00,-12.0,-21.0,-100.00,SE,124,0.0,0.0,63,0.00,,,0.00,0.000000,,2013-01-24 00:01:00,
2013-01-23 19:33:00,-12.0,-21.0,-100.00,SE,124,0.0,0.0,63,0.00,,,0.00,0.000000,,2013-01-24 00:33:00,
2013-01-23 19:43:00,-12.0,-21.0,-100.00,SE,124,0.0,0.0,63,0.00,,,0.00,0.000000,,2013-01-24 00:43:00,
2013-01-23 19:53:00,-12.0,-21.0,-100.00,SE,124,0.0,0.0,63,0.00,,,0.00,0.000000,,2013-01-24 00:53:00,
2013-01-23 20:01:00,-13.0,-20.0,-100.00,North,4,0.0,0.0,68,0.00,,,0.00,0.000000,,2013-01-24 01:01:00,
2013-01-23 20:33:00,-13.0,-20.0,-100.00,North,4,0.0,0.0,68,0.00,,,0.00,0.000000,,2013-01-24 01:33:00,
2013-01-23 20:43:00,-13.0,-20.0,-100.00,North,4,0.0,0.0,68,0.00,,,0.00,0.000000,,2013-01-24 01:43:00,
2013-01-23 20:53:00,-13.0,-20.0,-100.00,North,4,0.0,0.0,68,0.00,,,0.00,0.000000,,2013-01-24 01:53:00,
2013-01-23 21:01:00,-14.0,-21.0,-100.00,North,4,0.0,0.0,69,0.00,,,0.00,0.000000,,2013-01-24 02:01:00,
2013-01-23 21:33:00,-14.0,-21.0,-100.00,North,4,0.0,0.0,69,0.00,,,0.00,0.000000,,2013-01-24 02:33:00,
2013-01-23 21:43:00,-14.0,-21.0,-100.00,North,4,0.0,0.0,69,0.00,,,0.00,0.000000,,2013-01-24 02:43:00,
2013-01-23 21:52:00,-14.0,-21.0,-100.00,North,4,0.0,0.0,69,0.00,,,0.00,0.000000,,2013-01-24 02:52:00,
2013-01-23 22:01:00,-15.0,-22.0,-100.00,North,349,0.0,0.0,69,0.00,,,0.00,0.000000,,2013-01-24 03:01:00,
2013-01-23 22:33:00,-15.0,-22.0,-100.00,North,349,0.0,0.0,69,0.00,,,0.00,0.000000,,2013-01-24 03:33:00,
2013-01-23 22:43:00,-15.0,-22.0,-100.00,North,349,0.0,0.0,69,0.00,,,0.00,0.000000,,2013-01-24 03:43:00,
2013-01-23 22:53:00,-15.0,-22.0,-100.00,North,349,0.0,0.0,69,0.00,,,0.00,0.000000,,2013-01-24 03:53:00,
2013-01-23 23:01:00,-16.0,-23.0,-100.00,NNW,332,0.0,0.0,69,0.00,,,0.00,0.000000,,2013-01-24 04:01:00,
2013-01-23 23:33:00,-16.0,-23.0,-100.00,NNW,332,0.0,0.0,69,0.00,,,0.00,0.000000,,2013-01-24 04:33:00,
2013-01-23 23:43:00,-16.0,-23.0,-100.00,NNW,332,0.0,0.0,69,0.00,,,0.00,0.000000,,2013-01-24 04:43:00,
2013-01-23 23:53:00,-16.0,-23.0,-100.00,NNW,332,0.0,0.0,69,0.00,,,0.00,0.000000,,2013-01-24 04:53:00,